• In Deutschland
  • Länderverzeichnis
  • Für 7 Tage
  • Wassertemperatur
  • Satellitenkarten
  • Wetterkarte
  • Widgets
  • user-avatar
    Anmelden

    Stündliche Wetter Biberach an der Riß

    Heute, 12 Dezember, Dienstag

    Zeit Temperatur Niederschläge Wind Luftdruck Luftfeuchtigkeit
    00:00 +1°C° 0,6 mm 5 m/S 694 mmHg 91%
    01:00 +1°C° 0,6 mm 5 m/S 695 mmHg 90%
    02:00 +1°C° 0,4 mm 5 m/S 696 mmHg 90%
    03:00 +1°C° 0,4 mm 5 m/S 697 mmHg 89%
    04:00 0°C° 0,4 mm 5 m/S 698 mmHg 89%
    05:00 0°C° 0,3 mm 5 m/S 699 mmHg 89%
    06:00 -1°C° 0,3 mm 5 m/S 700 mmHg 88%
    07:00 -2°C° 0,3 mm 5 m/S 702 mmHg 88%
    08:00 -2°C° 0,2 mm 5 m/S 703 mmHg 88%
    09:00 -2°C° 0,2 mm 5 m/S 704 mmHg 87%
    10:00 -2°C° 0,2 mm 5 m/S 706 mmHg 87%
    11:00 -1°C° 0,1 mm 5 m/S 706 mmHg 86%
    12:00 -1°C° 0,1 mm 5 m/S 707 mmHg 86%
    13:00 -1°C° 0,1 mm 4 m/S 708 mmHg 85%
    14:00 -1°C° 0,1 mm 4 m/S 709 mmHg 86%
    15:00 -1°C° 0,1 mm 4 m/S 709 mmHg 87%
    16:00 -1°C° 0,1 mm 3 m/S 710 mmHg 88%
    17:00 -1°C° 0,1 mm 3 m/S 711 mmHg 89%
    18:00 -2°C° 0,1 mm 3 m/S 711 mmHg 91%
    19:00 -2°C° 0,1 mm 3 m/S 712 mmHg 92%
    20:00 -2°C° 0 mm 3 m/S 713 mmHg 92%
    21:00 -4°C° 0 mm 3 m/S 713 mmHg 92%
    22:00 -4°C° 0 mm 3 m/S 714 mmHg 92%
    23:00 -4°C° 0 mm 3 m/S 714 mmHg 93%

    Morgen, 13 Dezember, Mittwoch

    Zeit Temperatur Niederschläge Wind Luftdruck Luftfeuchtigkeit
    00:00 -5°C° 0 mm 3 m/S 714 mmHg 93%
    01:00 -5°C° 0 mm 3 m/S 715 mmHg 93%
    02:00 -5°C° 0 mm 3 m/S 715 mmHg 93%
    03:00 -5°C° 0 mm 3 m/S 715 mmHg 92%
    04:00 -6°C° 0 mm 3 m/S 715 mmHg 92%
    05:00 -6°C° 0 mm 3 m/S 715 mmHg 90%
    06:00 -6°C° 0 mm 3 m/S 715 mmHg 89%
    07:00 -6°C° 0 mm 3 m/S 715 mmHg 87%
    08:00 -5°C° 0 mm 3 m/S 714 mmHg 83%
    09:00 -5°C° 0 mm 4 m/S 714 mmHg 79%
    10:00 -4°C° 0 mm 4 m/S 713 mmHg 74%
    11:00 -3°C° 0 mm 4 m/S 712 mmHg 71%
    12:00 -2°C° 0 mm 4 m/S 711 mmHg 69%
    13:00 0°C° 0 mm 4 m/S 710 mmHg 66%
    14:00 -1°C° 0 mm 4 m/S 709 mmHg 67%
    15:00 -1°C° 0 mm 4 m/S 709 mmHg 69%
    16:00 -1°C° 0 mm 4 m/S 708 mmHg 71%
    17:00 -1°C° 0,2 mm 4 m/S 708 mmHg 72%
    18:00 0°C° 0,2 mm 5 m/S 707 mmHg 74%
    19:00 0°C° 0,2 mm 5 m/S 707 mmHg 75%
    20:00 0°C° 0,2 mm 5 m/S 707 mmHg 76%
    21:00 0°C° 0,2 mm 5 m/S 706 mmHg 77%
    22:00 0°C° 0,2 mm 5 m/S 705 mmHg 78%
    23:00 -1°C° 0,3 mm 6 m/S 705 mmHg 80%

    übermorgen, 14 Dezember, Donnerstag

    Zeit Temperatur Niederschläge Wind Luftdruck Luftfeuchtigkeit
    00:00 +1°C° 0,3 mm 6 m/S 704 mmHg 81%
    01:00 0°C° 0,3 mm 7 m/S 704 mmHg 82%
    02:00 0°C° 0,6 mm 7 m/S 704 mmHg 84%
    03:00 +2°C° 0,6 mm 7 m/S 704 mmHg 86%
    04:00 +2°C° 0,6 mm 8 m/S 704 mmHg 88%
    05:00 +2°C° 0,4 mm 7 m/S 704 mmHg 88%
    06:00 +2°C° 0,4 mm 7 m/S 705 mmHg 88%
    07:00 +2°C° 0,4 mm 7 m/S 705 mmHg 89%
    08:00 +2°C° 0,2 mm 6 m/S 705 mmHg 88%
    09:00 +1°C° 0,2 mm 6 m/S 705 mmHg 88%
    10:00 +1°C° 0,2 mm 5 m/S 705 mmHg 87%
    11:00 +1°C° 0,1 mm 6 m/S 705 mmHg 86%
    12:00 +2°C° 0,1 mm 6 m/S 704 mmHg 84%
    13:00 +2°C° 0,1 mm 6 m/S 704 mmHg 82%
    14:00 +2°C° 0 mm 6 m/S 703 mmHg 83%
    15:00 +1°C° 0 mm 5 m/S 702 mmHg 83%
    16:00 +1°C° 0 mm 5 m/S 701 mmHg 83%
    17:00 +1°C° 0,1 mm 6 m/S 700 mmHg 83%
    18:00 0°C° 0,1 mm 7 m/S 699 mmHg 82%
    19:00 0°C° 0,1 mm 7 m/S 699 mmHg 81%
    20:00 0°C° 1,6 mm 7 m/S 699 mmHg 82%
    21:00 0°C° 1,6 mm 7 m/S 699 mmHg 83%
    22:00 +2°C° 1,6 mm 7 m/S 698 mmHg 84%
    23:00 +1°C° 1,5 mm 6 m/S 699 mmHg 85%

    15 Dezember, Freitag

    Zeit Temperatur Niederschläge Wind Luftdruck Luftfeuchtigkeit
    00:00 -1°C° 1,5 mm 6 m/S 700 mmHg 86%
    01:00 -1°C° 1,5 mm 6 m/S 700 mmHg 87%
    02:00 -1°C° 0,3 mm 5 m/S 700 mmHg 87%
    03:00 -1°C° 0,3 mm 4 m/S 701 mmHg 88%
    04:00 -2°C° 0,3 mm 4 m/S 701 mmHg 88%
    05:00 -2°C° 0,1 mm 4 m/S 701 mmHg 89%
    06:00 -1°C° 0,1 mm 3 m/S 701 mmHg 91%
    07:00 -1°C° 0,1 mm 3 m/S 701 mmHg 92%
    08:00 -1°C° 0,2 mm 3 m/S 701 mmHg 91%
    09:00 0°C° 0,2 mm 3 m/S 700 mmHg 91%
    10:00 -1°C° 0,2 mm 4 m/S 700 mmHg 90%
    11:00 0°C° 0,1 mm 4 m/S 700 mmHg 88%
    12:00 0°C° 0,1 mm 4 m/S 699 mmHg 87%
    13:00 +1°C° 0,1 mm 4 m/S 699 mmHg 85%
    14:00 0°C° 0 mm 4 m/S 699 mmHg 86%
    15:00 +1°C° 0 mm 3 m/S 699 mmHg 87%
    16:00 0°C° 0 mm 3 m/S 699 mmHg 88%
    17:00 0°C° 0 mm 3 m/S 699 mmHg 88%
    18:00 -1°C° 0 mm 3 m/S 700 mmHg 88%
    19:00 -2°C° 0 mm 4 m/S 700 mmHg 88%
    20:00 -2°C° 0,2 mm 4 m/S 700 mmHg 88%
    21:00 -2°C° 0,2 mm 4 m/S 701 mmHg 89%
    22:00 -2°C° 0,2 mm 4 m/S 701 mmHg 89%
    23:00 -2°C° 0,1 mm 4 m/S 701 mmHg 91%

    16 Dezember, Samstag

    Zeit Temperatur Niederschläge Wind Luftdruck Luftfeuchtigkeit
    00:00 -2°C° 0,1 mm 4 m/S 702 mmHg 92%
    01:00 -2°C° 0,1 mm 3 m/S 702 mmHg 93%
    02:00 -2°C° 0,1 mm 3 m/S 702 mmHg 93%
    03:00 -1°C° 0,1 mm 3 m/S 702 mmHg 93%
    04:00 -2°C° 0,1 mm 4 m/S 703 mmHg 93%
    05:00 -2°C° 0,3 mm 4 m/S 703 mmHg 93%
    06:00 -3°C° 0,3 mm 4 m/S 703 mmHg 93%
    07:00 -3°C° 0,3 mm 4 m/S 704 mmHg 94%
    08:00 -3°C° 0,4 mm 4 m/S 705 mmHg 93%
    09:00 -2°C° 0,4 mm 4 m/S 705 mmHg 93%
    10:00 -2°C° 0,4 mm 4 m/S 706 mmHg 92%
    11:00 -2°C° 0,3 mm 4 m/S 706 mmHg 91%
    12:00 -1°C° 0,3 mm 4 m/S 707 mmHg 90%
    13:00 -1°C° 0,3 mm 4 m/S 707 mmHg 89%
    14:00 -2°C° 0,1 mm 4 m/S 707 mmHg 88%
    15:00 -2°C° 0,1 mm 4 m/S 708 mmHg 88%
    16:00 -2°C° 0,1 mm 4 m/S 708 mmHg 88%
    17:00 -3°C° 0,1 mm 4 m/S 709 mmHg 89%
    18:00 -3°C° 0,1 mm 4 m/S 709 mmHg 90%
    19:00 -3°C° 0,1 mm 4 m/S 710 mmHg 91%
    20:00 -4°C° 0,3 mm 5 m/S 710 mmHg 91%
    21:00 -4°C° 0,3 mm 5 m/S 711 mmHg 92%
    22:00 -4°C° 0,3 mm 5 m/S 711 mmHg 92%
    23:00 -4°C° 0,2 mm 5 m/S 711 mmHg 91%

    17 Dezember, Sonntag

    Zeit Temperatur Niederschläge Wind Luftdruck Luftfeuchtigkeit
    00:00 -3°C° 0,2 mm 4 m/S 711 mmHg 91%
    01:00 -4°C° 0,2 mm 4 m/S 711 mmHg 91%
    02:00 -4°C° 0,2 mm 4 m/S 711 mmHg 91%
    03:00 -4°C° 0,2 mm 4 m/S 712 mmHg 92%
    04:00 -4°C° 0,2 mm 4 m/S 712 mmHg 92%
    05:00 -4°C° 0,1 mm 4 m/S 712 mmHg 92%
    06:00 -4°C° 0,1 mm 4 m/S 712 mmHg 92%
    07:00 -5°C° 0,1 mm 5 m/S 712 mmHg 91%
    08:00 -5°C° 0 mm 5 m/S 712 mmHg 90%
    09:00 -5°C° 0 mm 5 m/S 712 mmHg 89%
    10:00 -5°C° 0 mm 5 m/S 712 mmHg 87%
    11:00 -4°C° 0 mm 5 m/S 712 mmHg 86%
    12:00 -4°C° 0 mm 5 m/S 711 mmHg 84%
    13:00 -2°C° 0 mm 5 m/S 711 mmHg 83%
    14:00 -2°C° 0,1 mm 5 m/S 711 mmHg 84%
    15:00 -4°C° 0,1 mm 5 m/S 711 mmHg 85%
    16:00 -4°C° 0,1 mm 5 m/S 711 mmHg 86%
    17:00 -4°C° 0,1 mm 5 m/S 712 mmHg 87%
    18:00 -4°C° 0,1 mm 5 m/S 712 mmHg 88%
    19:00 -4°C° 0,1 mm 5 m/S 712 mmHg 89%
    20:00 -5°C° 0,3 mm 5 m/S 713 mmHg 90%
    21:00 -4°C° 0,3 mm 4 m/S 713 mmHg 91%
    22:00 -4°C° 0,3 mm 4 m/S 713 mmHg 92%
    23:00 -4°C° 0,2 mm 4 m/S 713 mmHg 92%
    Mehr zeigen